| time (UTC) | temp F | wind direction | speed knots | gust knots | rain 1hr in | rain 24hr in | rain mn in | humidity % | barometer mb |
| 20260906075704 | 82 | 90 | 7.8 | 9.6 | 0.00 | 0.00 | 0.00 | 48 | 1021.0 |
| 20260906074704 | 81 | 90 | 9.6 | 10.4 | 0.00 | 0.00 | 0.00 | 51 | 1021.0 |
| 20260906073703 | 81 | 90 | 9.6 | 11.3 | 0.00 | 0.00 | 0.00 | 52 | 1021.0 |
| 20260906072703 | 80 | 135 | 7.0 | 7.8 | 0.00 | 0.00 | 0.00 | 53 | 1021.0 |
| 20260906071703 | 80 | 135 | 8.7 | 9.6 | 0.00 | 0.00 | 0.00 | 54 | 1020.9 |
| 20260906070703 | 80 | 90 | 7.0 | 8.7 | 0.00 | 0.00 | 0.00 | 56 | 1020.8 |
| 20260906065703 | 80 | 68 | 9.6 | 12.2 | 0.00 | 0.00 | 0.00 | 58 | 1020.7 |
| 20260906064703 | 79 | 135 | 5.2 | 6.1 | 0.00 | 0.00 | 0.00 | 60 | 1020.7 |
| 20260906063703 | 78 | 90 | 5.2 | 6.1 | 0.00 | 0.00 | 0.00 | 61 | 1020.6 |
| 20260906062703 | 79 | 90 | 4.3 | 7.0 | 0.00 | 0.00 | 0.00 | 60 | 1020.6 |
| 20260906061703 | 80 | 90 | 2.6 | 3.5 | 0.00 | 0.00 | 0.00 | 60 | 1020.4 |
| 20260906060704 | 79 | 90 | 4.3 | 6.1 | 0.00 | 0.00 | 0.00 | 58 | 1020.3 |
| 20260906055702 | 79 | 90 | 3.5 | 4.3 | 0.00 | 0.00 | 0.00 | 58 | 1020.1 |
| 20260906054703 | 78 | 90 | 3.5 | 3.5 | 0.00 | 0.00 | 0.00 | 59 | 1020.0 |
| 20260906053702 | 77 | 90 | 3.5 | 4.3 | 0.00 | 0.00 | 0.00 | 60 | 1019.9 |
| 20260906052703 | 77 | 90 | 3.5 | 4.3 | 0.00 | 0.00 | 0.00 | 61 | 1019.8 |
| 20260906051702 | 76 | 45 | 3.5 | 5.2 | 0.00 | 0.00 | 0.00 | 61 | 1019.8 |
| 20260906050702 | 75 | 90 | 2.6 | 3.5 | 0.00 | 0.00 | 0.00 | 62 | 1019.8 |
| 20260906045704 | 74 | 0 | 3.5 | 5.2 | 0.00 | 0.00 | 0.00 | 63 | 1019.7 |
| 20260906044703 | 74 | 22 | 3.5 | 3.5 | 0.00 | 0.00 | 0.00 | 63 | 1019.8 |
| 20260906043704 | 74 | 45 | 2.6 | 3.5 | 0.00 | 0.00 | 0.00 | 64 | 1019.5 |
| 20260906042703 | 74 | 0 | 3.5 | 5.2 | 0.00 | 0.00 | 0.00 | 65 | 1019.6 |
| 20260906041704 | 73 | 45 | 3.5 | 5.2 | 0.00 | 0.00 | 0.00 | 68 | 1019.4 |
| 20260906040703 | 71 | 0 | 7.0 | 9.6 | 0.00 | 0.00 | 0.00 | 74 | 1019.5 |
| 20260906035703 | 71 | 45 | 1.7 | 2.6 | 0.00 | 0.00 | 0.00 | 73 | 1019.5 |
| 20260906034702 | 72 | 90 | 0.9 | 1.7 | 0.00 | 0.00 | 0.00 | 72 | 1019.3 |
| 20260906033702 | 72 | 90 | 0.9 | 1.7 | 0.00 | 0.00 | 0.00 | 72 | 1019.3 |
| 20260906032702 | 72 | 0 | 0.9 | 1.7 | 0.00 | 0.00 | 0.00 | 73 | 1019.2 |
| 20260906031702 | 71 | 315 | 1.7 | 2.6 | 0.00 | 0.00 | 0.00 | 73 | 1019.1 |
| 20260906030702 | 71 | 180 | 1.7 | 3.5 | 0.00 | 0.00 | 0.00 | 74 | 1019.2 |
| 20260906025702 | 71 | 0 | 2.6 | 3.5 | 0.00 | 0.00 | 0.00 | 74 | 1019.0 |
| 20260906024702 | 71 | 315 | 1.7 | 2.6 | 0.00 | 0.00 | 0.00 | 74 | 1018.9 |
| 20260906023702 | 71 | 135 | 2.6 | 3.5 | 0.00 | 0.00 | 0.00 | 74 | 1019.0 |
| 20260906022702 | 71 | 315 | 1.7 | 1.7 | 0.00 | 0.00 | 0.00 | 74 | 1018.8 |
| 20260906021702 | 71 | 180 | 0.0 | 0.0 | 0.00 | 0.00 | 0.00 | 74 | 1018.7 |
| 20260906020702 | 71 | 135 | 1.7 | 1.7 | 0.00 | 0.00 | 0.00 | 73 | 1018.8 |
| 20260906015702 | 72 | 225 | 0.0 | 0.0 | 0.00 | 0.00 | 0.00 | 73 | 1018.6 |
| 20260906014702 | 72 | 315 | 1.7 | 2.6 | 0.00 | 0.00 | 0.00 | 72 | 1018.6 |
| 20260906013702 | 72 | 225 | 0.0 | 0.0 | 0.00 | 0.00 | 0.00 | 72 | 1018.5 |
| 20260906012703 | 72 | 225 | 0.0 | 0.0 | 0.00 | 0.00 | 0.00 | 70 | 1018.5 |
| 20260906011701 | 73 | 135 | 1.7 | 1.7 | 0.00 | 0.00 | 0.00 | 70 | 1018.5 |
| 20260906010702 | 73 | 315 | 2.6 | 3.5 | 0.00 | 0.00 | 0.00 | 68 | 1018.5 |
| 20260906005702 | 74 | 45 | 1.7 | 1.7 | 0.00 | 0.00 | 0.00 | 67 | 1018.4 |
| 20260906004700 | 74 | 0 | 1.7 | 2.6 | 0.00 | 0.00 | 0.00 | 67 | 1018.4 |
| 20260906003659 | 74 | 0 | 3.5 | 4.3 | 0.00 | 0.00 | 0.00 | 67 | 1018.2 |
| 20260906002700 | 74 | 315 | 1.7 | 1.7 | 0.00 | 0.00 | 0.00 | 67 | 1018.3 |
| 20260906001659 | 74 | 0 | 1.7 | 2.6 | 0.00 | 0.00 | 0.00 | 67 | 1018.5 |
| 20260906000659 | 75 | 292 | 3.5 | 3.5 | 0.00 | 0.00 | 0.00 | 66 | 1018.3 |
| 20260905235700 | 76 | 315 | 2.6 | 3.5 | 0.00 | 0.00 | 0.00 | 64 | 1018.4 |
| 20260905234659 | 76 | 45 | 0.9 | 0.9 | 0.00 | 0.00 | 0.00 | 63 | 1018.4 |
| 20260905233700 | 76 | 90 | 1.7 | 1.7 | 0.00 | 0.00 | 0.00 | 63 | 1018.2 |
| 20260905232703 | 76 | 90 | 1.7 | 2.6 | 0.00 | 0.00 | 0.00 | 63 | 1018.2 |
| 20260905231702 | 77 | 90 | 1.7 | 2.6 | 0.00 | 0.00 | 0.00 | 62 | 1018.2 |
| 20260905230702 | 77 | 90 | 1.7 | 3.5 | 0.00 | 0.00 | 0.00 | 62 | 1018.1 |
| 20260905225703 | 77 | 45 | 3.5 | 4.3 | 0.00 | 0.00 | 0.00 | 62 | 1018.3 |
| 20260905224702 | 77 | 45 | 2.6 | 3.5 | 0.00 | 0.00 | 0.00 | 62 | 1018.1 |
| 20260905223702 | 77 | 45 | 3.5 | 3.5 | 0.00 | 0.00 | 0.00 | 63 | 1018.0 |
| 20260905222702 | 77 | 45 | 2.6 | 3.5 | 0.00 | 0.00 | 0.00 | 64 | 1018.0 |
| 20260905221702 | 77 | 90 | 2.6 | 3.5 | 0.00 | 0.00 | 0.00 | 65 | 1018.0 |
| 20260905220702 | 77 | 90 | 1.7 | 3.5 | 0.00 | 0.00 | 0.00 | 66 | 1018.0 |
| 20260905215702 | 78 | 90 | 3.5 | 5.2 | 0.00 | 0.00 | 0.00 | 66 | 1017.9 |
| 20260905214702 | 78 | 90 | 4.3 | 5.2 | 0.00 | 0.00 | 0.00 | 65 | 1017.7 |
| 20260905213702 | 78 | 90 | 4.3 | 6.1 | 0.00 | 0.00 | 0.00 | 67 | 1017.8 |
| 20260905212702 | 78 | 90 | 3.5 | 4.3 | 0.00 | 0.00 | 0.00 | 66 | 1017.7 |
| 20260905211615 | 77 | 45 | 4.3 | 7.0 | 0.00 | 0.00 | 0.00 | 65 | 1017.7 |
| 20260905210615 | 77 | 90 | 6.1 | 7.0 | 0.00 | 0.00 | 0.00 | 65 | 1017.6 |
| 20260905205616 | 77 | 90 | 3.5 | 4.3 | 0.00 | 0.00 | 0.00 | 64 | 1017.7 |
| 20260905204615 | 77 | 45 | 4.3 | 6.1 | 0.00 | 0.00 | 0.00 | 64 | 1017.7 |
| 20260905203615 | 78 | 45 | 3.5 | 3.5 | 0.00 | 0.00 | 0.00 | 64 | 1017.6 |
| 20260905202614 | 78 | 45 | 2.6 | 3.5 | 0.00 | 0.00 | 0.00 | 65 | 1017.4 |
| 20260905201614 | 78 | 90 | 3.5 | 5.2 | 0.00 | 0.00 | 0.00 | 62 | 1017.3 |
| 20260905200613 | 79 | 90 | 3.5 | 5.2 | 0.00 | 0.00 | 0.00 | 60 | 1017.1 |
| 20260905195613 | 79 | 90 | 5.2 | 7.0 | 0.00 | 0.00 | 0.00 | 60 | 1016.8 |
| 20260905194613 | 78 | 90 | 5.2 | 7.0 | 0.00 | 0.00 | 0.00 | 60 | 1016.8 |
| 20260905193612 | 78 | 90 | 3.5 | 4.3 | 0.00 | 0.00 | 0.00 | 61 | 1016.6 |
| 20260905192613 | 78 | 90 | 1.7 | 2.6 | 0.00 | 0.00 | 0.00 | 60 | 1016.5 |
| 20260905191611 | 79 | 90 | 1.7 | 2.6 | 0.00 | 0.00 | 0.00 | 59 | 1016.4 |
| 20260905190611 | 80 | 90 | 1.7 | 2.6 | 0.00 | 0.00 | 0.00 | 57 | 1016.4 |
| 20260905185612 | 80 | 45 | 1.7 | 2.6 | 0.00 | 0.00 | 0.00 | 55 | 1016.3 |
| 20260905184611 | 81 | 90 | 1.7 | 1.7 | 0.00 | 0.00 | 0.00 | 54 | 1016.1 |
| 20260905183610 | 81 | 45 | 1.7 | 1.7 | 0.00 | 0.00 | 0.00 | 53 | 1016.0 |
| 20260905182610 | 82 | 90 | 0.0 | 0.0 | 0.00 | 0.00 | 0.00 | 49 | 1015.8 |
| 20260905181610 | 83 | 90 | 1.7 | 1.7 | 0.00 | 0.00 | 0.00 | 48 | 1015.5 |
| 20260905180610 | 83 | 45 | 2.6 | 3.5 | 0.00 | 0.00 | 0.00 | 49 | 1015.4 |
| 20260905175609 | 83 | 90 | 2.6 | 3.5 | 0.00 | 0.00 | 0.00 | 49 | 1015.3 |
| 20260905174608 | 84 | 90 | 2.6 | 3.5 | 0.00 | 0.00 | 0.00 | 49 | 1015.1 |
| 20260905173607 | 84 | 90 | 1.7 | 1.7 | 0.00 | 0.00 | 0.00 | 50 | 1015.0 |
| 20260905172606 | 85 | 68 | 0.9 | 1.7 | 0.00 | 0.00 | 0.00 | 49 | 1015.0 |
| 20260905171606 | 87 | 135 | 0.9 | 1.7 | 0.00 | 0.00 | 0.00 | 46 | 1014.8 |
| 20260905170606 | 87 | 135 | 3.5 | 3.5 | 0.00 | 0.00 | 0.00 | 43 | 1014.8 |
| 20260905165606 | 87 | 135 | 1.7 | 1.7 | 0.00 | 0.00 | 0.00 | 44 | 1014.7 |
| 20260905164605 | 87 | 135 | 1.7 | 1.7 | 0.00 | 0.00 | 0.00 | 45 | 1014.7 |
| 20260905163604 | 88 | 135 | 2.6 | 3.5 | 0.00 | 0.00 | 0.00 | 43 | 1014.5 |
| 20260905162603 | 89 | 135 | 1.7 | 2.6 | 0.00 | 0.00 | 0.00 | 42 | 1014.5 |
| 20260905161602 | 89 | 135 | 2.6 | 2.6 | 0.00 | 0.00 | 0.00 | 41 | 1014.4 |
| 20260905160602 | 89 | 135 | 3.5 | 4.3 | 0.00 | 0.00 | 0.00 | 41 | 1014.5 |
| 20260905155603 | 89 | 135 | 3.5 | 4.3 | 0.00 | 0.00 | 0.00 | 41 | 1014.3 |
| 20260905154603 | 88 | 90 | 1.7 | 3.5 | 0.00 | 0.00 | 0.00 | 40 | 1014.3 |
| 20260905153603 | 88 | 135 | 1.7 | 1.7 | 0.00 | 0.00 | 0.00 | 40 | 1014.2 |
| 20260905152602 | 89 | 180 | 2.6 | 3.5 | 0.00 | 0.00 | 0.00 | 37 | 1014.2 |
| 20260905151603 | 89 | 135 | 3.5 | 3.5 | 0.00 | 0.00 | 0.00 | 36 | 1014.1 |
| 20260905150604 | 90 | 135 | 3.5 | 4.3 | 0.00 | 0.00 | 0.00 | 36 | 1014.2 |
| 20260905145604 | 90 | 135 | 3.5 | 3.5 | 0.00 | 0.00 | 0.00 | 35 | 1014.1 |
| 20260905144603 | 90 | 135 | 3.5 | 6.1 | 0.00 | 0.00 | 0.00 | 34 | 1014.1 |
| 20260905143603 | 90 | 180 | 2.6 | 3.5 | 0.00 | 0.00 | 0.00 | 35 | 1014.2 |
| 20260905142603 | 90 | 90 | 1.7 | 2.6 | 0.00 | 0.00 | 0.00 | 35 | 1014.3 |
| 20260905141603 | 90 | 180 | 1.7 | 3.5 | 0.00 | 0.00 | 0.00 | 35 | 1014.2 |
| 20260905140604 | 89 | 135 | 4.3 | 5.2 | 0.00 | 0.00 | 0.00 | 35 | 1014.3 |
| 20260905135603 | 89 | 90 | 3.5 | 4.3 | 0.00 | 0.00 | 0.00 | 35 | 1014.3 |
| 20260905134603 | 90 | 90 | 3.5 | 4.3 | 0.00 | 0.00 | 0.00 | 35 | 1014.3 |
| 20260905133603 | 90 | 135 | 3.5 | 4.3 | 0.00 | 0.00 | 0.00 | 36 | 1014.3 |
| 20260905132603 | 90 | 135 | 1.7 | 2.6 | 0.00 | 0.00 | 0.00 | 36 | 1014.4 |
| 20260905131603 | 90 | 180 | 5.2 | 6.1 | 0.00 | 0.00 | 0.00 | 36 | 1014.5 |
| 20260905130603 | 89 | 180 | 3.5 | 4.3 | 0.00 | 0.00 | 0.00 | 36 | 1014.6 |
| 20260905125603 | 89 | 135 | 3.5 | 3.5 | 0.00 | 0.00 | 0.00 | 37 | 1014.6 |
| 20260905124603 | 89 | 135 | 3.5 | 5.2 | 0.00 | 0.00 | 0.00 | 37 | 1014.7 |
| 20260905123602 | 89 | 90 | 3.5 | 4.3 | 0.00 | 0.00 | 0.00 | 38 | 1014.6 |
| 20260905122603 | 89 | 135 | 3.5 | 3.5 | 0.00 | 0.00 | 0.00 | 39 | 1014.8 |
| 20260905121603 | 88 | 180 | 3.5 | 5.2 | 0.00 | 0.00 | 0.00 | 39 | 1014.8 |
| 20260905120604 | 88 | 158 | 3.5 | 3.5 | 0.00 | 0.00 | 0.00 | 40 | 1015.0 |
| 20260905115602 | 88 | 90 | 1.7 | 2.6 | 0.00 | 0.00 | 0.00 | 40 | 1015.0 |
| 20260905114603 | 88 | 135 | 3.5 | 4.3 | 0.00 | 0.00 | 0.00 | 41 | 1015.0 |
| 20260905113603 | 88 | 68 | 3.5 | 4.3 | 0.00 | 0.00 | 0.00 | 40 | 1015.1 |
| 20260905112603 | 88 | 135 | 3.5 | 3.5 | 0.00 | 0.00 | 0.00 | 41 | 1015.0 |
| 20260905111603 | 88 | 90 | 6.1 | 7.0 | 0.00 | 0.00 | 0.00 | 40 | 1015.1 |
| 20260905110602 | 88 | 135 | 4.3 | 5.2 | 0.00 | 0.00 | 0.00 | 39 | 1015.2 |
| 20260905105603 | 88 | 90 | 3.5 | 4.3 | 0.00 | 0.00 | 0.00 | 40 | 1015.3 |
| 20260905104603 | 88 | 22 | 3.5 | 3.5 | 0.00 | 0.00 | 0.00 | 40 | 1015.4 |
| 20260905103603 | 87 | 45 | 1.7 | 4.3 | 0.00 | 0.00 | 0.00 | 42 | 1015.3 |
| 20260905102603 | 86 | 180 | 2.6 | 3.5 | 0.00 | 0.00 | 0.00 | 42 | 1015.3 |
| 20260905101603 | 87 | 90 | 3.5 | 5.2 | 0.00 | 0.00 | 0.00 | 44 | 1015.2 |
| 20260905100603 | 85 | 90 | 3.5 | 4.3 | 0.00 | 0.00 | 0.00 | 49 | 1015.4 |
| 20260905095603 | 85 | 135 | 5.2 | 6.1 | 0.00 | 0.00 | 0.00 | 50 | 1015.5 |
| 20260905094602 | 84 | 45 | 1.7 | 3.5 | 0.00 | 0.00 | 0.00 | 52 | 1015.4 |
| 20260905093602 | 83 | 90 | 1.7 | 3.5 | 0.00 | 0.00 | 0.00 | 54 | 1015.5 |
| 20260905092603 | 83 | 135 | 3.5 | 4.3 | 0.00 | 0.00 | 0.00 | 54 | 1015.4 |
| 20260905091602 | 83 | 90 | 3.5 | 4.3 | 0.00 | 0.00 | 0.00 | 53 | 1015.4 |
| 20260905090602 | 83 | 68 | 3.5 | 4.3 | 0.00 | 0.00 | 0.00 | 55 | 1015.5 |
| 20260905085604 | 83 | 90 | 2.6 | 3.5 | 0.00 | 0.00 | 0.00 | 56 | 1015.2 |
| 20260905084602 | 82 | 68 | 3.5 | 4.3 | 0.00 | 0.00 | 0.00 | 55 | 1015.3 |
| 20260905083603 | 83 | 135 | 0.0 | 1.7 | 0.00 | 0.00 | 0.00 | 54 | 1015.1 |
| 20260905082603 | 82 | 90 | 1.7 | 3.5 | 0.00 | 0.00 | 0.00 | 57 | 1015.2 |
| 20260905081603 | 82 | 45 | 3.5 | 4.3 | 0.00 | 0.00 | 0.00 | 56 | 1015.1 |
| 20260905080604 | 82 | 90 | 4.3 | 5.2 | 0.00 | 0.00 | 0.00 | 60 | 1015.2 |